Weather History for KSNA - April, 2013

Change the Weather History Date:

Wednesday, April 10, 2013

  Actual Average Record
Temperature  
Mean Temperature 65 °F 61 °F  
Max Temperature 80 °F 68 °F 80 °F (2013)
Min Temperature 50 °F 53 °F 41 °F (1999)
Degree Days  
Heating Degree Days 0 4  
Month to date heating degree days 22 49  
Since 1 July heating degree days 1042 1136  
Cooling Degree Days 0 0  
Month to date cooling degree days 0 0  
Year to date cooling degree days 4 15  
Growing Degree Days 15 (Base 50)    
Moisture  
Dew Point 38 °F    
Average Humidity 40    
Maximum Humidity 68    
Minimum Humidity 11    
Precipitation  
Precipitation 0.00 in 0.02 in 0.00 in (2015)
Month to date precipitation 0.01 0.25  
Year to date precipitation 1.68 8.01  
Since 1 July precipitation 4.70  
Snow  
Snow 0.00 in - - ()
Month to date snowfall 0.0  
Year to date snowfall 0.0  
Since 1 July snowfall 0.0  
Snow Depth 0.00 in    
Sea Level Pressure  
Sea Level Pressure 30.03 in    
Wind  
Wind Speed 5 mph (WSW)    
Max Wind Speed 16 mph    
Max Gust Speed 22 mph    
Visibility 10 miles    
Events      
T = Trace of Precipitation, MM = Missing Value Source: NWS Daily Summary

Daily Weather History Graph

Daily Weather History Graph

Search for Another Location

Airport or City:

Trip Planner

Search our weather history database for the weather conditions in past years. The results will help you decide how hot, cold, wet, or windy it might be!

Date:

Astronomy

Apr. 10, 2013 Rise Set
Actual Time 6:26 AM PDT 7:19 PM PDT
Civil Twilight 6:01 AM PDT 7:44 PM PDT
Nautical Twilight 5:31 AM PDT 8:14 PM PDT
Astronomical Twilight 5:00 AM PDT 8:45 PM PDT
Moon 6:27 AM PDT (4/10) 7:56 PM PDT (4/10)
Length of Visible Light 13h 43m
Length of Day
12h 52m
New Moon, 0% of the Moon is Illuminated
Apr 10
New Moon
Apr 18
First Quarter
Apr 25
Full
May 2
Last Quarter
May 9
New

Hourly Weather History & Observations

Time (PDT) Temp. Dew Point Humidity Pressure Visibility Wind Dir Wind Speed Gust Speed Precip Events Conditions
12:53 AM 55.0 °F 39.9 °F 57% 30.02 in 10.0 mi NE 3.5 mph - N/A   Clear
1:53 AM 55.0 °F 41.0 °F 59% 30.01 in 10.0 mi Calm Calm - N/A   Clear
2:53 AM 54.0 °F 43.0 °F 66% 30.01 in 10.0 mi Calm Calm - N/A   Clear
3:53 AM 53.1 °F 39.0 °F 59% 30.02 in 10.0 mi Calm Calm - N/A   Clear
4:53 AM 53.1 °F 42.1 °F 66% 30.02 in 10.0 mi Calm Calm - N/A   Clear
5:53 AM 51.1 °F 41.0 °F 68% 30.04 in 10.0 mi Calm Calm - N/A   Clear
6:53 AM 51.1 °F 39.9 °F 66% 30.06 in 10.0 mi Calm Calm - N/A   Clear
7:53 AM 57.0 °F 37.9 °F 49% 30.08 in 10.0 mi Calm Calm - N/A   Clear
8:53 AM 61.0 °F 44.1 °F 54% 30.09 in 10.0 mi WNW 4.6 mph - N/A   Clear
10:53 AM 73.0 °F 37.9 °F 28% 30.09 in 10.0 mi NW 5.8 mph - N/A   Clear
12:53 PM 79.0 °F 19.0 °F 11% 30.04 in 5.0 mi NW 10.4 mph - N/A   Haze
1:53 PM 79.0 °F 21.9 °F 12% 30.03 in 10.0 mi West 10.4 mph 19.6 mph N/A   Clear
2:53 PM 75.9 °F 30.0 °F 19% 30.02 in 10.0 mi West 13.8 mph 20.7 mph N/A   Clear
3:53 PM 78.1 °F 25.0 °F 14% 30.00 in 10.0 mi West 10.4 mph 20.7 mph N/A   Clear
4:53 PM 75.0 °F 33.1 °F 22% 29.99 in 10.0 mi WSW 11.5 mph 19.6 mph N/A   Clear
5:53 PM 71.1 °F 39.9 °F 32% 29.99 in 10.0 mi West 8.1 mph - N/A   Clear
6:53 PM 69.1 °F 39.0 °F 33% 29.99 in 10.0 mi WSW 4.6 mph - N/A   Clear
7:53 PM 64.9 °F 43.0 °F 45% 30.00 in 10.0 mi SSW 3.5 mph - N/A   Clear
8:53 PM 62.1 °F 46.0 °F 56% 30.02 in 10.0 mi South 9.2 mph - N/A   Clear
9:53 PM 61.0 °F 48.0 °F 62% 30.03 in 10.0 mi SW 5.8 mph - N/A   Clear
10:53 PM 61.0 °F 46.9 °F 60% 30.02 in 10.0 mi SSW 3.5 mph - N/A   Clear
11:53 PM 60.1 °F 46.9 °F 62% 30.01 in 10.0 mi SSW 4.6 mph - N/A   Clear